Station Historical Data from High Park Village Toronto
 
Daily Summary for September 25, 2020 Units:  Metric    English   Both
Daily Weekly Monthly Yearly
  Current: High: Low: Average:
Temperature: 19.2 °C 30.2 °C 16.6 °C 20.6 °C
Dew Point: 15.8 °C 18.4 °C 14.4 °C 16.2 °C
Humidity: 81% 93% 44% 78%
Wind Speed: 0km/h 3.2km/h 0km/h 0.8km/h
Wind Gust: 1.6km/h 8km/h - -
WindCalm - - SSE
Pressure: 1016.5 hPa 1019.2 hPa 1015.6 hPa -
Precipitation: 0.2 mm      
 
 
Tabular Data for September 25, 2020
Time Temperature Dew Point Pressure Wind Wind Speed Wind Gust Humidity Rainfall Rate (Hourly) solar Conditions
00:01 18.6 °C 16.4 °C 1015.7 hPa Calm   3.2 km/h 87% 0.0 mm 0 W/m2
00:06 18.6 °C 16.3 °C 1015.8 hPa SSE 1.6 km/h 4.8 km/h 87% 0.0 mm 0 W/m2
00:11 18.4 °C 16.2 °C 1015.7 hPa North 1.6 km/h 4.8 km/h 87% 0.0 mm 0 W/m2
00:16 18.2 °C 16.2 °C 1015.7 hPa NE 1.6 km/h 4.8 km/h 88% 0.0 mm 0 W/m2
00:21 18.1 °C 16.1 °C 1015.8 hPa NNE 1.6 km/h 4.8 km/h 88% 0.0 mm 0 W/m2
00:26 18 °C 16.1 °C 1015.8 hPa North 1.6 km/h 4.8 km/h 89% 0.0 mm 0 W/m2
00:31 18 °C 16.1 °C 1015.7 hPa North 1.6 km/h 4.8 km/h 89% 0.0 mm 0 W/m2
00:36 17.9 °C 16.3 °C 1015.8 hPa NNE 1.6 km/h 4.8 km/h 90% 0.0 mm 0 W/m2
00:41 17.9 °C 16.3 °C 1015.8 hPa NNW 1.6 km/h 4.8 km/h 90% 0.0 mm 0 W/m2
00:46 17.9 °C 16.3 °C 1015.8 hPa North 1.6 km/h 4.8 km/h 90% 0.0 mm 0 W/m2
00:51 17.9 °C 16.1 °C 1015.8 hPa North 1.6 km/h 4.8 km/h 89% 0.0 mm 0 W/m2
00:56 17.9 °C 16.1 °C 1015.7 hPa NNE 1.6 km/h 4.8 km/h 89% 0.0 mm 0 W/m2
01:01 17.9 °C 16 °C 1015.7 hPa NE 1.6 km/h 3.2 km/h 89% 0.0 mm 0 W/m2
01:06 17.9 °C 15.8 °C 1015.6 hPa North 1.6 km/h 4.8 km/h 88% 0.0 mm 0 W/m2
01:11 17.9 °C 15.9 °C 1015.6 hPa North 1.6 km/h 6.4 km/h 88% 0.0 mm 0 W/m2
01:16 17.9 °C 15.8 °C 1015.6 hPa NNE 1.6 km/h 4.8 km/h 88% 0.0 mm 0 W/m2
01:21 17.9 °C 15.7 °C 1015.6 hPa NE 1.6 km/h 4.8 km/h 87% 0.0 mm 0 W/m2
01:26 17.9 °C 15.7 °C 1015.7 hPa North 1.6 km/h 6.4 km/h 87% 0.0 mm 0 W/m2
01:31 17.8 °C 15.6 °C 1015.7 hPa NNW 1.6 km/h 4.8 km/h 87% 0.0 mm 0 W/m2
01:41 17.6 °C 15.3 °C 1015.7 hPa North 1.6 km/h 6.4 km/h 87% 0.0 mm 0 W/m2
01:46 17.4 °C 15.1 °C 1015.7 hPa North 1.6 km/h 4.8 km/h 86% 0.0 mm 0 W/m2
01:51 17.4 °C 15.1 °C 1015.8 hPa NNE 1.6 km/h 3.2 km/h 86% 0.0 mm 0 W/m2
01:56 17.4 °C 15 °C 1015.8 hPa North 1.6 km/h 4.8 km/h 86% 0.0 mm 0 W/m2
02:01 17.3 °C 14.9 °C 1015.9 hPa North 1.6 km/h 4.8 km/h 86% 0.0 mm 0 W/m2
02:06 17.3 °C 14.9 °C 1015.9 hPa North 1.6 km/h 4.8 km/h 86% 0.0 mm 0 W/m2
02:11 17.3 °C 14.7 °C 1015.9 hPa North 1.6 km/h 4.8 km/h 85% 0.0 mm 0 W/m2
02:16 17.2 °C 14.8 °C 1015.9 hPa NNE 1.6 km/h 4.8 km/h 86% 0.0 mm 0 W/m2
02:21 17.2 °C 14.8 °C 1016.0 hPa NNE 1.6 km/h 4.8 km/h 86% 0.0 mm 0 W/m2
02:26 17.1 °C 14.7 °C 1015.9 hPa NNE 1.6 km/h 4.8 km/h 86% 0.0 mm 0 W/m2
02:31 17.1 °C 14.6 °C 1015.9 hPa North 1.6 km/h 4.8 km/h 85% 0.0 mm 0 W/m2
02:36 17.1 °C 14.6 °C 1016.0 hPa North 1.6 km/h 3.2 km/h 85% 0.0 mm 0 W/m2
02:41 17.1 °C 14.6 °C 1015.9 hPa North 1.6 km/h 3.2 km/h 85% 0.0 mm 0 W/m2
02:46 17.1 °C 14.6 °C 1015.9 hPa North 1.6 km/h 3.2 km/h 85% 0.0 mm 0 W/m2
02:51 17.2 °C 14.6 °C 1015.8 hPa NNW 1.6 km/h 3.2 km/h 85% 0.0 mm 0 W/m2
02:56 17.2 °C 14.4 °C 1015.9 hPa North 1.6 km/h 3.2 km/h 84% 0.0 mm 0 W/m2
03:01 17.2 °C 14.4 °C 1015.9 hPa NNE 1.6 km/h 3.2 km/h 84% 0.0 mm 0 W/m2
03:06 17.2 °C 14.4 °C 1015.8 hPa NNE 1.6 km/h 3.2 km/h 84% 0.0 mm 0 W/m2
03:11 17.2 °C 14.4 °C 1015.8 hPa North 1.6 km/h 4.8 km/h 84% 0.0 mm 0 W/m2
03:16 17.2 °C 14.4 °C 1015.8 hPa NNE 1.6 km/h 3.2 km/h 84% 0.0 mm 0 W/m2
03:21 17.2 °C 14.4 °C 1015.8 hPa North 1.6 km/h 3.2 km/h 84% 0.0 mm 0 W/m2
03:26 17.2 °C 14.4 °C 1015.9 hPa Calm   3.2 km/h 84% 0.0 mm 0 W/m2
03:31 17.2 °C 14.4 °C 1016.0 hPa NNE 1.6 km/h 3.2 km/h 84% 0.0 mm 0 W/m2
03:36 17.2 °C 14.4 °C 1016.0 hPa North 1.6 km/h 4.8 km/h 84% 0.0 mm 0 W/m2
03:41 17.2 °C 14.5 °C 1016.0 hPa Calm   3.2 km/h 84% 0.0 mm 0 W/m2
03:46 17.3 °C 14.5 °C 1016.0 hPa Calm   1.6 km/h 84% 0.0 mm 0 W/m2
03:51 17.3 °C 14.7 °C 1016.0 hPa Calm   1.6 km/h 85% 0.0 mm 0 W/m2
03:56 17.3 °C 14.8 °C 1015.9 hPa Calm   1.6 km/h 85% 0.0 mm 0 W/m2
04:01 17.4 °C 14.8 °C 1016.0 hPa Calm   1.6 km/h 85% 0.0 mm 0 W/m2
04:06 17.4 °C 15.1 °C 1016.0 hPa Calm   1.6 km/h 86% 0.0 mm 0 W/m2
04:11 17.4 °C 15.1 °C 1016.0 hPa Calm   1.6 km/h 86% 0.0 mm 0 W/m2
04:16 17.4 °C 15 °C 1016.0 hPa Calm   1.6 km/h 86% 0.0 mm 0 W/m2
04:21 17.3 °C 14.9 °C 1016.0 hPa Calm   1.6 km/h 86% 0.0 mm 0 W/m2
04:26 17.3 °C 14.9 °C 1016.0 hPa Calm   1.6 km/h 86% 0.0 mm 0 W/m2
04:31 17.3 °C 14.9 °C 1016.1 hPa Calm   1.6 km/h 86% 0.0 mm 0 W/m2
04:36 17.2 °C 14.9 °C 1016.1 hPa Calm   1.6 km/h 86% 0.0 mm 0 W/m2
04:41 17.2 °C 14.8 °C 1016.2 hPa Calm   1.6 km/h 86% 0.0 mm 0 W/m2
04:46 17.2 °C 14.8 °C 1016.2 hPa Calm   1.6 km/h 86% 0.0 mm 0 W/m2
04:51 17.2 °C 14.8 °C 1016.2 hPa Calm   1.6 km/h 86% 0.0 mm 0 W/m2
04:56 17.2 °C 14.8 °C 1016.3 hPa Calm   1.6 km/h 86% 0.0 mm 0 W/m2
05:01 17.2 °C 15 °C 1016.3 hPa South 1.6 km/h 3.2 km/h 87% 0.0 mm 0 W/m2
05:06 17.3 °C 15.1 °C 1016.4 hPa South 1.6 km/h 3.2 km/h 87% 0.0 mm 0 W/m2
05:11 17.3 °C 15.2 °C 1016.5 hPa Calm   3.2 km/h 88% 0.0 mm 0 W/m2
05:16 17.2 °C 15.2 °C 1016.5 hPa Calm   1.6 km/h 88% 0.0 mm 0 W/m2
05:21 17.2 °C 15.4 °C 1016.5 hPa Calm   1.6 km/h 89% 0.0 mm 0 W/m2
05:26 17.3 °C 15.4 °C 1016.6 hPa Calm   3.2 km/h 89% 0.0 mm 0 W/m2
05:31 17.2 °C 15.6 °C 1016.6 hPa Calm   3.2 km/h 90% 0.0 mm 0 W/m2
05:36 17.2 °C 15.6 °C 1016.7 hPa Calm   1.6 km/h 90% 0.0 mm 0 W/m2
05:41 17.2 °C 15.5 °C 1016.7 hPa Calm   1.6 km/h 90% 0.0 mm 0 W/m2
05:46 17.2 °C 15.5 °C 1016.8 hPa Calm   1.6 km/h 90% 0.0 mm 0 W/m2
05:51 17.1 °C 15.4 °C 1016.9 hPa Calm   1.6 km/h 90% 0.0 mm 0 W/m2
05:56 17.1 °C 15.6 °C 1017.0 hPa Calm   1.6 km/h 91% 0.0 mm 0 W/m2
06:01 16.9 °C 15.5 °C 1017.1 hPa Calm   1.6 km/h 91% 0.0 mm 0 W/m2
06:06 16.9 °C 15.4 °C 1017.1 hPa Calm   1.6 km/h 91% 0.0 mm 0 W/m2
06:11 16.8 °C 15.3 °C 1017.2 hPa Calm   1.6 km/h 91% 0.0 mm 0 W/m2
06:16 16.8 °C 15.3 °C 1017.3 hPa Calm   1.6 km/h 91% 0.0 mm 0 W/m2
06:21 16.7 °C 15.2 °C 1017.3 hPa Calm   1.6 km/h 91% 0.0 mm 0 W/m2
06:26 16.7 °C 15.2 °C 1017.3 hPa Calm   1.6 km/h 91% 0.0 mm 0 W/m2
06:31 16.7 °C 15.2 °C 1017.4 hPa Calm   1.6 km/h 91% 0.0 mm 0 W/m2
06:36 16.6 °C 15.1 °C 1017.5 hPa Calm   1.6 km/h 91% 0.0 mm 0 W/m2
06:41 16.6 °C 15.1 °C 1017.5 hPa Calm   1.6 km/h 91% 0.0 mm 0 W/m2
06:46 16.6 °C 15.3 °C 1017.6 hPa Calm   1.6 km/h 92% 0.0 mm 0 W/m2
06:51 16.7 °C 15.2 °C 1017.6 hPa Calm   1.6 km/h 91% 0.0 mm 0 W/m2
06:56 16.7 °C 15.3 °C 1017.7 hPa Calm   1.6 km/h 92% 0.0 mm 0 W/m2
07:01 16.7 °C 15.4 °C 1017.8 hPa Calm   1.6 km/h 92% 0.0 mm 0 W/m2
07:06 16.7 °C 15.4 °C 1017.8 hPa Calm   1.6 km/h 92% 0.0 mm 0 W/m2
07:11 16.8 °C 15.4 °C 1017.8 hPa Calm   1.6 km/h 92% 0.0 mm 0 W/m2
07:16 16.8 °C 15.5 °C 1017.9 hPa Calm   1.6 km/h 92% 0.0 mm 0 W/m2
07:21 16.8 °C 15.5 °C 1017.9 hPa Calm   1.6 km/h 92% 0.0 mm 0 W/m2
07:26 16.9 °C 15.6 °C 1018.0 hPa Calm   1.6 km/h 92% 0.0 mm 0 W/m2
07:31 16.9 °C 15.6 °C 1018.0 hPa Calm   1.6 km/h 92% 0.0 mm 0 W/m2
07:36 17 °C 15.7 °C 1018.0 hPa Calm   1.6 km/h 92% 0.0 mm 0 W/m2
07:41 17 °C 15.7 °C 1018.1 hPa Calm   1.6 km/h 92% 0.0 mm 5 W/m2
07:46 17.1 °C 15.7 °C 1018.2 hPa Calm   1.6 km/h 92% 0.0 mm 5 W/m2
07:51 17.1 °C 15.8 °C 1018.2 hPa Calm   1.6 km/h 92% 0.0 mm 7 W/m2
07:56 17.2 °C 15.8 °C 1018.1 hPa Calm   1.6 km/h 92% 0.0 mm 9 W/m2
08:01 17.2 °C 15.9 °C 1018.1 hPa Calm   1.6 km/h 92% 0.0 mm 12 W/m2
08:06 17.3 °C 15.9 °C 1018.2 hPa Calm   1.6 km/h 92% 0.0 mm 12 W/m2
08:11 17.3 °C 16.2 °C 1018.2 hPa Calm   1.6 km/h 93% 0.0 mm 14 W/m2
08:16 17.4 °C 16.2 °C 1018.3 hPa Calm   1.6 km/h 93% 0.0 mm 21 W/m2
08:21 17.4 °C 16.1 °C 1018.4 hPa Calm   1.6 km/h 92% 0.0 mm 21 W/m2
08:26 17.5 °C 16.2 °C 1018.5 hPa Calm   1.6 km/h 92% 0.0 mm 19 W/m2
08:31 17.5 °C 16.2 °C 1018.5 hPa Calm   3.2 km/h 92% 0.0 mm 21 W/m2
08:36 17.5 °C 16.2 °C 1018.5 hPa Calm   1.6 km/h 92% 0.0 mm 21 W/m2
08:41 17.6 °C 16.2 °C 1018.5 hPa Calm   1.6 km/h 92% 0.0 mm 25 W/m2
08:46 17.6 °C 16.3 °C 1018.6 hPa Calm   3.2 km/h 92% 0.0 mm 23 W/m2
08:51 17.6 °C 16.3 °C 1018.6 hPa Calm   1.6 km/h 92% 0.0 mm 28 W/m2
08:56 17.7 °C 16.4 °C 1018.6 hPa Calm   1.6 km/h 92% 0.0 mm 28 W/m2
09:01 17.8 °C 16.4 °C 1018.7 hPa Calm   1.6 km/h 92% 0.0 mm 32 W/m2
09:06 17.8 °C 16.5 °C 1018.7 hPa Calm   1.6 km/h 92% 0.0 mm 33 W/m2
09:11 17.9 °C 16.6 °C 1018.7 hPa Calm   1.6 km/h 92% 0.0 mm 42 W/m2
09:16 18 °C 16.5 °C 1018.7 hPa Calm   1.6 km/h 91% 0.0 mm 44 W/m2
09:21 18.1 °C 16.6 °C 1018.8 hPa Calm   1.6 km/h 91% 0.0 mm 53 W/m2
09:26 18.1 °C 16.6 °C 1018.8 hPa Calm   1.6 km/h 91% 0.0 mm 56 W/m2
09:31 18.2 °C 16.7 °C 1018.7 hPa Calm   1.6 km/h 91% 0.2 mm 65 W/m2
09:36 18.2 °C 16.7 °C 1018.8 hPa Calm   1.6 km/h 91% 0.0 mm 63 W/m2
09:41 18.3 °C 16.7 °C 1018.8 hPa North 1.6 km/h 3.2 km/h 90% 0.0 mm 60 W/m2
09:46 18.4 °C 16.8 °C 1018.8 hPa Calm   3.2 km/h 90% 0.0 mm 70 W/m2
09:51 18.5 °C 16.8 °C 1018.8 hPa Calm   1.6 km/h 90% 0.0 mm 63 W/m2
09:56 18.6 °C 16.9 °C 1018.9 hPa Calm   1.6 km/h 90% 0.0 mm 70 W/m2
10:01 18.8 °C 17.1 °C 1019.0 hPa Calm   1.6 km/h 90% 0.0 mm 76 W/m2
10:06 18.9 °C 17.1 °C 1019.1 hPa Calm   3.2 km/h 89% 0.0 mm 81 W/m2
10:11 19 °C 17.2 °C 1019.1 hPa Calm   3.2 km/h 89% 0.0 mm 74 W/m2
10:16 19.1 °C 17.1 °C 1019.1 hPa Calm   1.6 km/h 88% 0.0 mm 84 W/m2
10:21 19.3 °C 17.2 °C 1019.1 hPa Calm   1.6 km/h 88% 0.0 mm 102 W/m2
10:26 19.4 °C 17.4 °C 1019.1 hPa Calm   3.2 km/h 88% 0.0 mm 105 W/m2
10:31 19.6 °C 17.4 °C 1019.2 hPa Calm   3.2 km/h 87% 0.0 mm 107 W/m2
10:36 19.8 °C 17.3 °C 1019.1 hPa South 1.6 km/h 3.2 km/h 86% 0.0 mm 93 W/m2
10:41 19.8 °C 17.4 °C 1019.2 hPa SSW 1.6 km/h 3.2 km/h 86% 0.0 mm 70 W/m2
10:46 19.8 °C 17.2 °C 1019.1 hPa SSW 1.6 km/h 3.2 km/h 85% 0.0 mm 70 W/m2
10:51 19.8 °C 17.2 °C 1019.0 hPa SSW 1.6 km/h 4.8 km/h 85% 0.0 mm 63 W/m2
10:56 19.8 °C 17.2 °C 1019.0 hPa Calm   3.2 km/h 85% 0.0 mm 63 W/m2
11:01 19.8 °C 17.2 °C 1019.0 hPa Calm   1.6 km/h 85% 0.0 mm 69 W/m2
11:06 19.9 °C 17.3 °C 1019.0 hPa SSW 1.6 km/h 4.8 km/h 85% 0.0 mm 70 W/m2
11:11 19.8 °C 17.2 °C 1019.0 hPa South 1.6 km/h 6.4 km/h 85% 0.0 mm 65 W/m2
11:16 19.8 °C 17.2 °C 1019.0 hPa SSW 1.6 km/h 3.2 km/h 85% 0.0 mm 65 W/m2
11:21 19.7 °C 17.1 °C 1019.0 hPa South 1.6 km/h 4.8 km/h 85% 0.0 mm 67 W/m2
11:26 19.7 °C 17.1 °C 1019.0 hPa South 1.6 km/h 4.8 km/h 85% 0.0 mm 67 W/m2
11:31 19.7 °C 17.1 °C 1019.0 hPa South 1.6 km/h 4.8 km/h 85% 0.0 mm 69 W/m2
11:36 19.7 °C 17.1 °C 1019.1 hPa Calm   3.2 km/h 85% 0.0 mm 70 W/m2
11:41 19.7 °C 17.1 °C 1019.1 hPa South 1.6 km/h 6.4 km/h 85% 0.0 mm 72 W/m2
11:46 19.7 °C 17.1 °C 1019.0 hPa Calm   6.4 km/h 85% 0.0 mm 74 W/m2
11:51 19.8 °C 17.2 °C 1019.0 hPa South 1.6 km/h 4.8 km/h 85% 0.0 mm 76 W/m2
11:56 19.9 °C 17.3 °C 1019.0 hPa SSW 1.6 km/h 3.2 km/h 85% 0.0 mm 76 W/m2
12:01 19.9 °C 17.1 °C 1018.9 hPa SSW 1.6 km/h 4.8 km/h 84% 0.0 mm 77 W/m2
12:06 20 °C 17.2 °C 1018.8 hPa SW 1.6 km/h 4.8 km/h 84% 0.0 mm 77 W/m2
12:11 20.1 °C 17.2 °C 1018.8 hPa SW 1.6 km/h 4.8 km/h 84% 0.0 mm 79 W/m2
12:16 20.1 °C 17.3 °C 1018.8 hPa SSW 1.6 km/h 6.4 km/h 84% 0.0 mm 79 W/m2
12:21 20.1 °C 17.3 °C 1018.8 hPa SSW 1.6 km/h 4.8 km/h 84% 0.0 mm 81 W/m2
12:26 20.2 °C 17.2 °C 1018.8 hPa SSW 1.6 km/h 4.8 km/h 83% 0.0 mm 81 W/m2
12:31 20.2 °C 17.2 °C 1018.7 hPa SSW 1.6 km/h 8 km/h 83% 0.0 mm 84 W/m2
12:36 20.1 °C 17.1 °C 1018.8 hPa South 1.6 km/h 6.4 km/h 83% 0.0 mm 86 W/m2
12:41 20.1 °C 17.1 °C 1018.8 hPa South 1.6 km/h 6.4 km/h 83% 0.0 mm 88 W/m2
12:46 20.1 °C 17.1 °C 1018.8 hPa South 1.6 km/h 4.8 km/h 83% 0.0 mm 90 W/m2
12:51 20.2 °C 17.2 °C 1018.8 hPa South 1.6 km/h 6.4 km/h 83% 0.0 mm 91 W/m2
12:56 20.4 °C 17.4 °C 1018.8 hPa SSW 1.6 km/h 4.8 km/h 83% 0.0 mm 561 W/m2
13:01 20.5 °C 17.5 °C 1018.8 hPa SSW 1.6 km/h 6.4 km/h 83% 0.0 mm 568 W/m2
13:06 20.7 °C 17.6 °C 1018.8 hPa SSW 1.6 km/h 4.8 km/h 82% 0.0 mm 575 W/m2
13:10 21.3 °C 17.9 °C 1018.7 hPa SSW 1.6 km/h 4.8 km/h 81% 0.0 mm 582 W/m2
13:15 21.7 °C 17.9 °C 1018.5 hPa South 1.6 km/h 4.8 km/h 79% 0.0 mm 591 W/m2
13:20 22.2 °C 18.1 °C 1018.4 hPa South 3.2 km/h 4.8 km/h 78% 0.0 mm 592 W/m2
13:31 22.6 °C 17.9 °C 1018.3 hPa South 1.6 km/h 4.8 km/h 75% 0.0 mm 589 W/m2
13:36 23.2 °C 18.3 °C 1018.3 hPa SSW 1.6 km/h 4.8 km/h 74% 0.0 mm 592 W/m2
13:41 23.5 °C 18.1 °C 1018.4 hPa SW 1.6 km/h 4.8 km/h 72% 0.0 mm 592 W/m2
13:46 23.6 °C 18.3 °C 1018.2 hPa SW 1.6 km/h 6.4 km/h 72% 0.0 mm 592 W/m2
13:51 23.8 °C 18.2 °C 1018.2 hPa SSW 1.6 km/h 6.4 km/h 71% 0.0 mm 594 W/m2
13:56 23.9 °C 18.1 °C 1018.1 hPa South 1.6 km/h 4.8 km/h 70% 0.0 mm 596 W/m2
14:01 24.2 °C 18.1 °C 1018.1 hPa SSW 1.6 km/h 4.8 km/h 69% 0.0 mm 592 W/m2
14:06 24.3 °C 18.2 °C 1018.0 hPa SSW 1.6 km/h 4.8 km/h 69% 0.0 mm 591 W/m2
14:11 24.2 °C 18.2 °C 1018.0 hPa SSW 3.2 km/h 4.8 km/h 69% 0.0 mm 589 W/m2
14:21 24.4 °C 17.9 °C 1017.9 hPa South 3.2 km/h 6.4 km/h 67% 0.0 mm 584 W/m2
14:26 24.3 °C 18.1 °C 1017.9 hPa SSW 1.6 km/h 6.4 km/h 68% 0.0 mm 580 W/m2
14:31 24.6 °C 18.1 °C 1017.7 hPa South 1.6 km/h 6.4 km/h 67% 0.0 mm 577 W/m2
14:36 24.9 °C 18.1 °C 1017.7 hPa SSW 1.6 km/h 6.4 km/h 66% 0.0 mm 573 W/m2
14:41 25.1 °C 18.3 °C 1017.6 hPa SW 1.6 km/h 6.4 km/h 66% 0.0 mm 568 W/m2
14:46 25.6 °C 18.3 °C 1017.6 hPa South 1.6 km/h 4.8 km/h 64% 0.0 mm 561 W/m2
14:51 25.7 °C 18.4 °C 1017.6 hPa South 1.6 km/h 4.8 km/h 64% 0.0 mm 555 W/m2
14:56 25.9 °C 18.1 °C 1017.6 hPa South 1.6 km/h 4.8 km/h 62% 0.0 mm 554 W/m2
15:01 26.1 °C 18.2 °C 1017.6 hPa South 1.6 km/h 4.8 km/h 62% 0.0 mm 547 W/m2
15:06 26.3 °C 17.9 °C 1017.5 hPa SW 1.6 km/h 4.8 km/h 60% 0.0 mm 538 W/m2
15:11 26.2 °C 17.8 °C 1017.5 hPa South 1.6 km/h 4.8 km/h 60% 0.0 mm 533 W/m2
15:16 26.9 °C 17.9 °C 1017.4 hPa South 1.6 km/h 4.8 km/h 58% 0.0 mm 527 W/m2
15:21 27.6 °C 17.8 °C 1017.3 hPa Calm   4.8 km/h 55% 0.0 mm 519 W/m2
15:26 27.5 °C 17.1 °C 1017.4 hPa SSW 1.6 km/h 4.8 km/h 53% 0.0 mm 512 W/m2
15:31 27.6 °C 17.1 °C 1017.3 hPa SSW 1.6 km/h 6.4 km/h 53% 0.0 mm 501 W/m2
15:36 27.6 °C 16.6 °C 1017.2 hPa SSW 1.6 km/h 4.8 km/h 51% 0.0 mm 492 W/m2
15:41 27.3 °C 15.9 °C 1017.2 hPa SSW 1.6 km/h 6.4 km/h 50% 0.0 mm 478 W/m2
15:46 27.8 °C 16.7 °C 1017.2 hPa SSW 1.6 km/h 4.8 km/h 51% 0.0 mm 471 W/m2
15:51 28.7 °C 16.9 °C 1017.2 hPa SW 1.6 km/h 3.2 km/h 49% 0.0 mm 462 W/m2
15:56 28.6 °C 16.4 °C 1017.1 hPa SSW 1.6 km/h 6.4 km/h 48% 0.0 mm 454 W/m2
16:01 28.3 °C 15.9 °C 1017.1 hPa SSW 1.6 km/h 4.8 km/h 47% 0.0 mm 441 W/m2
16:06 28.2 °C 15.8 °C 1017.0 hPa SSW 1.6 km/h 8 km/h 47% 0.0 mm 424 W/m2
16:11 28.3 °C 15.9 °C 1017.0 hPa SW 1.6 km/h 4.8 km/h 47% 0.0 mm 410 W/m2
16:16 28.3 °C 15.6 °C 1016.9 hPa SSW 1.6 km/h 6.4 km/h 46% 0.0 mm 396 W/m2
16:21 28.2 °C 15.4 °C 1016.9 hPa South 1.6 km/h 4.8 km/h 46% 0.0 mm 387 W/m2
16:26 28.5 °C 16.1 °C 1016.8 hPa SW 1.6 km/h 4.8 km/h 47% 0.0 mm 374 W/m2
16:31 28.2 °C 15.2 °C 1016.8 hPa SSW 1.6 km/h 6.4 km/h 45% 0.0 mm 362 W/m2
16:36 28.2 °C 15.8 °C 1016.7 hPa South 1.6 km/h 4.8 km/h 47% 0.0 mm 352 W/m2
16:41 28.3 °C 15.6 °C 1016.6 hPa South 1.6 km/h 4.8 km/h 46% 0.0 mm 336 W/m2
16:46 28.5 °C 16.1 °C 1016.6 hPa South 1.6 km/h 4.8 km/h 47% 0.0 mm 322 W/m2
16:51 29.2 °C 16.4 °C 1016.5 hPa SSE 1.6 km/h 3.2 km/h 46% 0.0 mm 311 W/m2
16:56 29.5 °C 16.3 °C 1016.6 hPa South 1.6 km/h 3.2 km/h 45% 0.0 mm 295 W/m2
17:01 29.1 °C 16.3 °C 1016.6 hPa South 1.6 km/h 4.8 km/h 46% 0.0 mm 278 W/m2
17:06 29.2 °C 16.1 °C 1016.5 hPa South 1.6 km/h 4.8 km/h 45% 0.0 mm 262 W/m2
17:11 29.2 °C 16 °C 1016.5 hPa SSW 1.6 km/h 4.8 km/h 45% 0.0 mm 246 W/m2
17:16 28.9 °C 16.2 °C 1016.4 hPa SW 1.6 km/h 4.8 km/h 46% 0.0 mm 230 W/m2
17:21 29.3 °C 16.5 °C 1016.4 hPa South 1.6 km/h 4.8 km/h 46% 0.0 mm 211 W/m2
17:26 29.3 °C 16.1 °C 1016.5 hPa South 1.6 km/h 4.8 km/h 45% 0.0 mm 197 W/m2
17:31 28.7 °C 15.9 °C 1016.4 hPa SSW 1.6 km/h 4.8 km/h 46% 0.0 mm 181 W/m2
17:36 29.2 °C 16.4 °C 1016.4 hPa Calm   3.2 km/h 46% 0.0 mm 165 W/m2
17:41 29.3 °C 16.4 °C 1016.4 hPa Calm   1.6 km/h 46% 0.0 mm 149 W/m2
17:46 30.2 °C 16.9 °C 1016.4 hPa Calm   1.6 km/h 45% 0.0 mm 135 W/m2
17:51 29.9 °C 16.3 °C 1016.3 hPa SSE 1.6 km/h 4.8 km/h 44% 0.0 mm 130 W/m2
17:56 29.3 °C 16.4 °C 1016.3 hPa Calm   3.2 km/h 46% 0.0 mm 113 W/m2
18:01 29.2 °C 16.3 °C 1016.2 hPa Calm   3.2 km/h 46% 0.0 mm 100 W/m2
18:06 29.4 °C 16.6 °C 1016.2 hPa Calm   3.2 km/h 46% 0.0 mm 86 W/m2
18:11 29.4 °C 16.6 °C 1016.2 hPa Calm   3.2 km/h 46% 0.0 mm 70 W/m2
18:16 28.6 °C 16.2 °C 1016.1 hPa Calm   3.2 km/h 47% 0.0 mm 58 W/m2
18:21 28.3 °C 16.2 °C 1016.1 hPa SSE 1.6 km/h 3.2 km/h 48% 0.0 mm 47 W/m2
18:26 27.3 °C 16 °C 1016.0 hPa Calm   3.2 km/h 50% 0.0 mm 35 W/m2
18:31 26.7 °C 16.1 °C 1016.0 hPa SSW 1.6 km/h 4.8 km/h 52% 0.0 mm 21 W/m2
18:36 26.2 °C 15.9 °C 1016.0 hPa South 1.6 km/h 4.8 km/h 53% 0.0 mm 19 W/m2
18:41 25.6 °C 16.2 °C 1015.9 hPa South 1.6 km/h 4.8 km/h 56% 0.0 mm 16 W/m2
18:46 25 °C 16.2 °C 1015.9 hPa SSW 1.6 km/h 3.2 km/h 58% 0.0 mm 12 W/m2
18:51 24.6 °C 16.1 °C 1016.0 hPa Calm   3.2 km/h 59% 0.0 mm 9 W/m2
18:56 24.1 °C 16.1 °C 1016.0 hPa SSW 1.6 km/h 4.8 km/h 61% 0.0 mm 7 W/m2
19:01 23.6 °C 16.1 °C 1016.0 hPa SSW 1.6 km/h 3.2 km/h 63% 0.0 mm 0 W/m2
19:06 22.9 °C 16.2 °C 1016.0 hPa SSW 1.6 km/h 4.8 km/h 66% 0.0 mm 0 W/m2
19:11 22.4 °C 16.2 °C 1016.0 hPa South 1.6 km/h 3.2 km/h 68% 0.0 mm 0 W/m2
19:16 22.1 °C 16.3 °C 1016.1 hPa South 1.6 km/h 3.2 km/h 70% 0.0 mm 0 W/m2
19:21 21.8 °C 16.3 °C 1016.1 hPa SSW 1.6 km/h 4.8 km/h 71% 0.0 mm 0 W/m2
19:26 21.6 °C 16.6 °C 1016.1 hPa SSE 1.6 km/h 3.2 km/h 73% 0.0 mm 0 W/m2
19:31 21.5 °C 16.4 °C 1016.2 hPa ENE 1.6 km/h 3.2 km/h 73% 0.0 mm 0 W/m2
19:36 21.4 °C 16.6 °C 1016.2 hPa East 1.6 km/h 3.2 km/h 74% 0.0 mm 0 W/m2
19:41 21.3 °C 16.5 °C 1016.3 hPa Calm   3.2 km/h 74% 0.0 mm 0 W/m2
19:46 21.2 °C 16.3 °C 1016.4 hPa Calm   3.2 km/h 74% 0.0 mm 0 W/m2
19:51 21 °C 16.2 °C 1016.5 hPa Calm   1.6 km/h 74% 0.0 mm 0 W/m2
19:56 20.8 °C 16.2 °C 1016.4 hPa Calm   1.6 km/h 75% 0.0 mm 0 W/m2
20:01 20.6 °C 15.9 °C 1016.5 hPa South 1.6 km/h 3.2 km/h 75% 0.0 mm 0 W/m2
20:06 20.3 °C 15.9 °C 1016.5 hPa Calm   3.2 km/h 76% 0.0 mm 0 W/m2
20:11 20.1 °C 15.9 °C 1016.5 hPa Calm   3.2 km/h 77% 0.0 mm 0 W/m2
20:16 20.1 °C 16.1 °C 1016.6 hPa Calm   3.2 km/h 78% 0.0 mm 0 W/m2
20:21 20 °C 16.1 °C 1016.6 hPa Calm   3.2 km/h 78% 0.0 mm 0 W/m2
20:26 19.9 °C 16.2 °C 1016.6 hPa Calm   3.2 km/h 79% 0.0 mm 0 W/m2
20:31 19.8 °C 16.1 °C 1016.6 hPa Calm   1.6 km/h 79% 0.0 mm 0 W/m2
20:36 19.8 °C 16.2 °C 1016.6 hPa Calm   1.6 km/h 80% 0.0 mm 0 W/m2
20:41 19.8 °C 16.2 °C 1016.7 hPa Calm   1.6 km/h 80% 0.0 mm 0 W/m2
20:46 19.8 °C 16.2 °C 1016.8 hPa Calm   1.6 km/h 80% 0.0 mm 0 W/m2
20:51 19.8 °C 16.2 °C 1016.8 hPa Calm   3.2 km/h 80% 0.0 mm 0 W/m2
20:56 19.8 °C 16.3 °C 1016.8 hPa Calm   1.6 km/h 80% 0.0 mm 0 W/m2
21:01 19.8 °C 16.4 °C 1016.9 hPa Calm   1.6 km/h 81% 0.0 mm 0 W/m2
21:06 19.8 °C 16.4 °C 1016.8 hPa Calm   1.6 km/h 81% 0.0 mm 0 W/m2
21:11 19.8 °C 16.3 °C 1016.9 hPa Calm   1.6 km/h 80% 0.0 mm 0 W/m2
21:16 19.8 °C 16.3 °C 1016.8 hPa Calm   1.6 km/h 80% 0.0 mm 0 W/m2
21:21 19.9 °C 16.5 °C 1016.8 hPa Calm   1.6 km/h 81% 0.0 mm 0 W/m2
21:26 19.8 °C 16.3 °C 1016.8 hPa Calm   1.6 km/h 80% 0.0 mm 0 W/m2
21:31 19.8 °C 16.4 °C 1016.7 hPa Calm   1.6 km/h 81% 0.0 mm 0 W/m2
21:36 19.8 °C 16.4 °C 1016.7 hPa Calm   1.6 km/h 81% 0.0 mm 0 W/m2
21:41 19.8 °C 16.4 °C 1016.7 hPa Calm   1.6 km/h 81% 0.0 mm 0 W/m2
21:46 19.8 °C 16.4 °C 1016.7 hPa Calm   1.6 km/h 81% 0.0 mm 0 W/m2
21:51 19.7 °C 16.3 °C 1016.7 hPa Calm   1.6 km/h 81% 0.0 mm 0 W/m2
21:56 19.6 °C 16.2 °C 1016.7 hPa Calm   1.6 km/h 81% 0.0 mm 0 W/m2
22:01 19.6 °C 16.2 °C 1016.7 hPa Calm   3.2 km/h 81% 0.0 mm 0 W/m2
22:06 19.6 °C 16.2 °C 1016.7 hPa Calm   3.2 km/h 81% 0.0 mm 0 W/m2
22:11 19.6 °C 16.2 °C 1016.7 hPa Calm   1.6 km/h 81% 0.0 mm 0 W/m2
22:16 19.6 °C 16.2 °C 1016.7 hPa Calm   1.6 km/h 81% 0.0 mm 0 W/m2
22:21 19.6 °C 16.2 °C 1016.6 hPa Calm   3.2 km/h 81% 0.0 mm 0 W/m2
22:26 19.5 °C 16.1 °C 1016.7 hPa Calm   1.6 km/h 81% 0.0 mm 0 W/m2
22:31 19.5 °C 16.1 °C 1016.7 hPa Calm   1.6 km/h 81% 0.0 mm 0 W/m2
22:36 19.4 °C 16.1 °C 1016.7 hPa Calm   1.6 km/h 81% 0.0 mm 0 W/m2
22:41 19.4 °C 16.1 °C 1016.7 hPa Calm   1.6 km/h 81% 0.0 mm 0 W/m2
22:46 19.4 °C 16 °C 1016.7 hPa Calm   1.6 km/h 81% 0.0 mm 0 W/m2
22:51 19.4 °C 16 °C 1016.6 hPa Calm   1.6 km/h 81% 0.0 mm 0 W/m2
22:56 19.3 °C 15.9 °C 1016.7 hPa Calm   1.6 km/h 81% 0.0 mm 0 W/m2
23:01 19.3 °C 15.9 °C 1016.6 hPa Calm   1.6 km/h 81% 0.0 mm 0 W/m2
23:06 19.3 °C 15.9 °C 1016.6 hPa Calm   1.6 km/h 81% 0.0 mm 0 W/m2
23:11 19.2 °C 15.9 °C 1016.6 hPa Calm   1.6 km/h 81% 0.0 mm 0 W/m2
23:16 19.2 °C 15.8 °C 1016.6 hPa Calm   1.6 km/h 81% 0.0 mm 0 W/m2
23:21 19.2 °C 15.8 °C 1016.6 hPa Calm   1.6 km/h 81% 0.0 mm 0 W/m2
23:26 19.2 °C 15.8 °C 1016.5 hPa Calm   1.6 km/h 81% 0.0 mm 0 W/m2
Historical Data from High Park Village Toronto since August 2007
Compliments of Weather Underground - 2 mb